RH
3 5 6 6 8 13 15 14 19 28 37 51 61 64 64 63 64 63 59 61 60 52 51 58 59 49 44 48 51 55 57 58 60 56 50 43 36 33 32 29 25 20 13 10 10 11 11 9 8 8 9 12 12 10 9 10 10 10 8 7 8 8 8 8 8 7 8 8 9 9 9 9 9 9 9 9 9 9 9 9 9 9 10 9 9 9
3 3 4 6 12 17 16 16 21 29 42 56 65 68 69 68 68 69 65 62 58 53 51 55 58 53 45 45 47 47 48 49 51 53 58 58 48 42 41 36 31 26 21 17 12 8 9 10 8 7 9 12 10 6 6 7 7 7 7 7 7 7 7 7 8 8 9 9 9 9 9 9 9 9 9 8 9 9 9 9 9 9 9 9 10 10
2 2 4 10 18 19 15 16 19 26 42 57 66 71 72 71 69 66 62 57 52 54 56 51 53 54 48 47 51 49 47 49 51 54 61 64 59 53 49 45 40 33 28 24 19 12 8 9 9 6 7 8 6 5 5 6 6 6 6 6 7 7 8 8 9 9 9 9 9 9 8 8 8 8 8 8 8 8 8 8 8 8 8 8 9 8
3 1 6 15 20 17 13 13 18 28 41 52 61 67 71 74 66 60 65 66 64 64 60 51 49 51 49 50 55 55 52 53 57 62 65 65 66 65 59 57 51 41 36 33 27 20 13 9 9 7 5 5 5 5 6 6 6 6 6 7 8 8 8 9 9 9 9 9 8 8 8 7 8 8 8 8 8 8 8 7 7 7 7 7 7 7
3 2 8 15 15 13 11 12 21 32 39 46 52 59 67 66 62 68 78 79 80 75 61 56 54 50 52 56 57 58 59 57 56 58 61 62 65 66 66 67 63 50 41 39 34 28 21 13 10 9 7 6 6 5 6 6 6 7 7 7 8 8 9 9 9 9 8 8 8 8 8 8 8 7 8 8 7 8 7 8 8 7 8 8 8 8
3 3 8 10 10 11 8 12 26 32 37 42 44 52 62 59 64 81 85 84 87 75 58 60 63 57 56 56 55 60 62 59 53 51 55 58 59 61 59 59 62 58 50 45 39 33 27 21 14 11 9 7 7 6 6 6 6 7 7 8 8 8 8 8 8 9 8 8 8 8 9 8 9 8 8 8 8 8 8 8 8 8 8 8 8 8
3 2 6 7 7 8 5 13 31 34 34 40 41 52 63 63 72 84 87 90 85 69 64 71 73 72 65 52 50 59 61 57 56 58 62 62 62 65 63 56 56 62 64 58 48 40 35 30 24 18 14 11 9 8 7 7 7 7 7 7 7 7 8 8 8 8 8 9 9 9 9 9 9 8 8 9 8 8 8 8 8 8 8 8 8 8
3 3 4 5 5 5 3 12 31 36 32 35 45 55 62 65 71 77 82 83 73 66 73 73 68 70 64 49 48 55 55 55 61 66 68 67 66 67 69 66 62 65 70 68 62 55 46 39 33 28 22 15 11 10 10 9 8 8 7 7 8 8 8 8 8 8 9 9 9 9 9 9 8 8 8 8 8 8 8 9 9 9 8 8 8 9
3 2 2 4 4 3 3 9 26 36 28 31 48 53 55 61 64 67 70 69 65 65 68 64 61 64 59 50 50 51 48 51 63 69 70 69 67 64 63 64 65 66 69 71 70 67 59 49 41 37 32 23 16 13 11 11 11 10 9 8 8 8 8 8 8 9 9 9 10 9 9 9 9 9 8 8 8 7 7 8 8 9 9 9 9 8
3 3 2 3 3 3 4 8 23 32 21 26 47 52 56 61 59 61 64 64 65 62 58 58 60 61 58 52 50 48 44 50 61 61 59 62 65 66 62 57 58 59 62 66 70 73 70 61 54 48 41 32 25 19 14 13 13 12 11 10 9 9 9 9 9 9 9 9 10 9 10 10 10 10 10 10 9 8 8 7 7 7 8 9 8 8
3 3 3 3 3 4 6 11 21 25 17 27 51 59 61 63 59 59 59 56 56 53 52 55 57 60 60 54 49 44 41 50 57 48 42 49 57 65 63 55 52 48 49 53 57 67 71 69 65 54 43 37 31 27 22 17 15 14 13 12 12 12 10 10 9 9 10 10 10 11 12 12 14 14 13 11 10 9 8 7 6 7 7 8 9 8
3 3 3 3 4 4 8 15 21 23 21 32 56 66 64 62 60 57 52 49 47 46 49 52 56 60 58 51 47 43 42 49 55 47 42 47 57 68 64 54 54 51 51 51 48 57 69 72 69 54 41 37 34 31 29 25 23 19 18 19 19 20 19 17 17 15 15 15 15 16 17 19 22 20 13 9 9 8 8 7 7 7 7 8 9 9
3 3 2 3 4 5 9 14 21 27 25 32 57 70 66 62 59 54 49 47 46 45 46 48 50 52 51 47 46 46 42 45 49 45 46 51 58 71 66 53 55 59 61 59 52 56 65 67 64 53 44 41 37 36 36 34 33 31 30 28 23 22 20 18 20 22 23 22 21 19 21 26 26 18 9 6 7 7 7 7 7 7 8 9 9 9
3 3 3 3 4 4 7 11 18 26 21 27 57 71 64 60 57 53 50 48 46 45 45 45 47 47 46 44 44 44 40 42 44 42 48 55 58 67 64 51 53 60 63 63 59 58 58 56 54 49 45 41 38 37 37 38 40 39 33 26 24 23 17 13 14 16 19 19 17 18 23 27 21 12 8 8 8 7 7 8 8 8 9 9 9 8
3 3 3 3 4 3 5 6 11 17 15 26 57 71 64 59 55 52 50 49 47 46 44 45 45 45 43 41 42 44 44 46 45 42 47 54 55 60 58 49 53 60 62 64 63 56 49 47 46 41 38 36 32 29 28 34 41 40 33 30 33 26 13 9 10 11 12 12 15 23 30 27 15 8 8 8 8 8 9 9 8 9 9 8 9 10
3 4 3 3 3 3 4 3 6 12 15 31 58 68 61 57 56 54 49 47 47 45 44 45 45 44 43 43 44 45 47 47 45 44 46 47 49 52 50 49 56 60 62 64 61 53 48 47 47 42 35 31 27 23 25 35 43 41 38 39 36 22 11 11 13 13 14 16 22 32 34 26 14 10 9 8 8 8 8 8 9 9 8 10 17 21
3 3 3 4 3 3 3 3 6 11 20 39 58 60 57 56 55 52 46 44 46 45 44 45 45 46 46 46 45 45 47 46 43 46 48 46 46 48 49 54 58 59 62 62 58 56 55 54 52 50 41 30 24 24 28 38 43 42 41 39 30 17 11 13 14 17 21 23 26 28 25 18 12 10 10 10 10 9 9 9 9 9 9 15 29 37
4 4 3 4 3 4 4 3 6 16 31 46 44 39 50 58 50 45 44 44 44 44 44 45 45 47 46 45 47 48 49 47 46 49 50 47 47 49 53 59 59 59 61 60 57 58 58 56 55 55 49 35 27 29 36 42 43 41 39 34 24 15 12 13 13 16 20 25 26 22 17 12 10 12 12 12 12 11 12 11 10 9 8 17 36 40
4 4 3 4 4 4 5 4 5 14 28 32 22 21 36 46 41 39 43 44 43 43 43 44 45 45 45 45 47 48 49 49 49 51 52 51 49 49 54 59 61 61 61 59 59 59 58 56 54 53 49 38 26 24 29 33 33 33 34 30 23 17 14 13 12 12 14 18 22 22 19 14 11 12 12 12 13 13 13 11 9 9 8 20 36 34
4 5 4 4 5 4 6 6 4 8 14 15 19 29 34 36 39 41 42 43 43 42 43 44 44 42 41 41 41 43 46 47 46 47 52 53 51 52 58 63 63 61 59 59 62 61 57 56 54 50 46 38 27 20 19 18 20 26 29 28 24 19 17 17 18 18 16 14 14 15 15 14 13 13 13 13 13 13 14 11 8 8 10 22 36 37
5 5 5 5 6 5 7 8 5 9 16 15 23 36 36 34 39 41 40 41 41 41 42 40 36 32 33 35 36 38 40 42 42 46 52 53 53 58 63 64 62 60 60 61 60 58 56 56 55 53 51 45 35 27 24 22 24 27 28 26 25 24 24 24 22 21 20 22 26 25 22 19 16 15 14 14 14 13 13 11 9 8 10 21 38 49
6 4 6 9 10 7 7 9 9 16 25 24 24 30 33 35 37 37 37 36 37 39 37 34 31 27 30 34 33 33 37 41 44 48 51 53 56 60 62 62 60 60 61 59 54 53 54 56 55 55 57 54 45 34 28 27 28 29 29 29 28 28 27 24 26 29 29 32 44 55 60 52 32 19 15 15 15 14 12 11 9 8 16 33 47 50
7 5 7 12 13 10 9 13 16 21 30 32 28 25 29 37 40 39 36 34 37 39 36 35 34 30 32 35 33 36 43 46 47 48 49 49 51 55 59 60 56 56 59 58 54 53 54 55 55 56 56 52 43 34 28 28 29 30 30 30 29 28 23 21 30 37 31 32 48 65 80 78 53 32 24 19 15 14 14 12 9 13 30 50 56 52
17 12 8 10 16 16 16 22 24 26 31 34 31 26 26 31 35 38 37 36 37 38 37 38 37 35 35 32 31 39 47 47 46 47 46 45 46 50 56 56 52 54 57 56 55 53 50 51 55 58 56 46 38 35 34 32 31 31 30 28 25 23 19 18 24 25 20 28 45 55 67 77 73 59 43 27 21 19 17 14 11 20 41 53 56 63
32 22 10 10 19 25 28 33 34 31 31 32 32 32 32 31 31 35 37 36 35 35 38 40 41 43 43 37 36 43 46 46 47 47 42 40 42 46 50 51 49 50 51 51 54 52 46 44 47 53 55 47 39 38 37 35 33 31 29 26 23 21 19 18 18 15 14 27 45 54 61 70 79 78 60 43 37 28 21 17 14 31 57 63 63 75
42 31 17 10 15 24 27 28 29 28 29 34 36 37 40 39 35 34 33 32 29 30 36 42 44 46 44 41 42 45 48 49 50 47 39 35 37 41 46 49 48 47 44 47 53 51 48 48 50 55 59 56 51 48 42 38 36 33 30 28 25 22 20 18 17 15 14 21 39 58 70 70 72 74 65 60 58 41 22 14 19 48 77 78 75 78
52 45 33 18 9 13 17 16 19 26 31 37 40 40 43 42 35 33 36 34 30 29 35 41 44 44 42 41 43 45 48 49 46 43 38 35 39 45 48 49 48 46 42 45 51 50 50 54 56 57 59 59 59 58 54 49 45 41 37 33 28 26 24 22 19 17 14 16 28 49 66 71 72 70 65 67 67 51 30 17 27 60 81 77 74 68
56 55 49 34 14 9 18 21 24 32 36 40 44 44 46 44 37 35 39 38 34 34 38 40 41 41 39 39 42 44 46 46 44 42 41 41 44 48 48 49 51 48 42 42 46 46 47 51 52 51 52 52 52 54 57 57 56 54 49 43 39 37 35 30 23 18 17 22 37 55 64 68 71 73 73 71 70 68 58 41 40 63 79 79 76 65
55 56 55 47 27 14 23 31 30 35 41 43 47 47 46 43 39 37 39 40 40 39 40 40 40 39 37 38 42 43 43 45 46 45 44 45 47 49 50 51 53 50 44 42 44 44 45 46 46 48 50 50 49 51 52 54 55 53 48 45 45 45 43 36 27 20 17 21 39 61 69 70 72 78 80 74 72 79 78 64 57 65 76 82 81 72
55 55 54 54 42 23 23 34 34 37 44 46 47 48 46 44 42 40 41 43 45 44 43 44 43 40 40 42 44 44 44 46 47 46 45 46 49 51 51 51 51 50 49 50 50 48 47 45 45 49 52 53 54 56 57 55 50 45 44 44 43 42 40 37 31 26 21 18 26 39 47 52 62 74 78 76 82 90 86 77 74 72 75 83 88 82
54 55 53 55 52 33 21 31 38 40 45 47 47 48 47 47 46 45 45 47 48 48 47 47 46 44 43 44 46 46 47 46 46 46 43 41 45 50 52 52 53 54 54 54 54 53 52 50 48 49 51 53 56 57 58 56 47 43 47 47 43 39 37 37 35 31 27 22 21 31 46 60 69 73 72 77 90 95 88 85 84 81 84 87 82 77
52 53 52 53 55 38 19 23 38 46 49 50 49 49 50 50 49 48 49 50 50 50 48 46 45 44 45 46 46 46 45 43 42 44 42 41 46 52 55 55 55 55 54 55 56 57 56 55 52 50 51 53 53 52 54 53 49 50 52 48 43 40 37 37 36 35 33 25 24 44 69 84 87 80 69 70 78 78 79 88 91 88 89 77 60 59
54 51 50 51 51 37 18 20 38 52 55 53 51 51 52 51 50 51 51 51 51 50 48 45 42 42 45 47 46 44 43 42 41 40 41 46 51 53 54 55 54 54 55 56 57 58 59 58 53 51 52 53 53 50 50 50 52 56 56 49 45 42 40 39 36 35 35 28 35 62 81 80 79 78 70 70 77 79 82 89 91 89 84 67 49 48
55 50 48 49 47 35 23 26 41 50 53 54 55 55 53 52 52 53 52 52 52 51 49 48 45 43 44 44 44 43 42 41 41 40 43 51 56 54 54 55 55 55 55 56 59 62 63 58 53 53 54 53 54 54 53 53 55 58 57 54 50 46 42 41 37 34 33 28 37 59 66 60 64 70 71 75 85 92 93 92 89 85 74 56 43 42
56 50 48 48 45 37 31 32 39 43 45 49 54 56 56 55 53 53 54 56 56 52 50 50 49 46 44 43 43 44 42 43 44 42 45 52 55 56 56 56 57 58 57 60 65 67 64 59 57 58 57 56 57 57 56 56 57 57 58 56 53 49 45 41 36 34 31 28 30 34 33 39 56 67 71 78 88 92 88 81 75 65 53 42 39 39
60 51 49 49 45 40 37 36 36 39 43 48 51 54 57 58 55 53 56 58 58 54 53 54 51 47 45 44 44 44 45 47 47 43 44 50 55 58 59 57 58 63 66 68 71 69 65 63 63 63 63 63 63 62 59 58 58 57 57 55 53 49 46 41 35 30 28 25 26 30 28 31 48 68 78 83 87 84 71 57 49 44 40 37 36 35
62 53 50 50 48 43 41 43 44 43 45 49 52 53 57 60 59 57 58 58 56 55 56 59 57 50 46 46 47 48 49 51 52 49 47 50 53 56 58 57 58 65 70 71 72 70 68 69 70 71 72 70 68 67 64 61 61 59 54 52 50 46 42 37 30 28 29 28 32 43 46 39 45 67 82 81 74 68 60 50 44 41 38 37 38 39
63 60 55 54 54 46 41 49 55 53 52 54 55 54 56 61 63 62 62 60 56 55 59 62 62 57 53 52 52 51 51 52 54 56 56 56 57 58 59 59 60 64 68 71 73 74 75 77 77 76 78 77 74 71 66 64 63 58 52 48 44 39 36 32 27 28 30 34 42 51 56 53 51 58 68 68 63 60 58 54 50 44 42 43 45 44
69 64 59 60 64 55 44 46 55 59 60 60 60 58 57 61 65 65 66 65 60 59 62 64 64 62 58 58 56 53 52 53 54 57 58 59 60 62 63 65 66 68 71 75 78 79 82 84 81 79 79 77 76 73 67 64 62 56 50 47 42 39 35 31 30 27 23 34 52 60 66 69 61 57 66 70 67 66 64 60 54 47 44 46 47 47
75 68 65 67 71 66 55 49 51 58 64 65 66 67 66 65 66 67 72 74 67 63 64 64 67 68 64 62 60 56 55 57 59 61 62 62 65 69 70 70 71 73 75 77 78 78 81 84 81 79 78 75 75 73 67 64 62 55 50 48 45 42 37 33 32 25 24 48 71 76 82 87 75 69 77 79 72 70 68 63 54 46 43 50 58 63
79 72 74 76 75 71 65 59 56 59 64 66 67 70 71 68 65 66 70 73 69 67 66 63 64 69 71 67 62 60 60 61 62 62 63 63 64 67 71 72 74 75 76 79 81 80 82 84 80 78 77 72 70 69 66 67 65 54 48 47 44 40 36 33 30 22 26 55 80 86 92 96 89 84 83 75 69 68 65 59 53 48 51 62 71 73
85 79 83 85 82 76 70 67 64 63 65 67 67 67 65 63 62 62 63 63 62 62 63 60 60 64 67 65 62 65 67 67 68 67 67 67 66 66 70 74 76 77 78 81 83 80 79 80 78 76 73 70 69 69 68 66 60 49 43 41 38 35 31 28 26 21 19 34 60 82 92 86 79 80 74 62 60 62 62 63 63 60 62 69 73 73
93 86 88 90 86 79 74 69 68 68 68 68 68 67 65 63 62 61 59 57 56 56 57 59 60 61 62 62 61 65 67 67 69 69 68 69 68 68 71 75 77 79 77 75 75 74 73 73 73 71 69 67 70 72 67 59 51 45 41 37 32 30 28 24 21 21 19 20 31 56 74 72 66 68 65 58 58 60 62 70 74 73 74 76 75 73
94 85 86 92 87 80 76 70 68 73 74 72 70 69 68 68 66 62 59 56 55 56 56 57 57 56 57 59 59 60 63 64 65 66 67 70 69 66 66 67 66 66 64 60 60 63 66 68 68 66 65 68 72 70 62 54 48 43 38 34 31 28 25 22 18 17 21 22 22 33 54 67 69 70 70 65 61 61 67 75 81 82 81 78 73 71
89 86 85 90 89 82 77 70 66 72 77 77 76 74 71 72 72 70 66 62 59 58 57 56 55 54 55 56 57 59 60 60 61 63 67 74 74 64 55 55 58 63 67 65 62 63 66 68 67 65 67 70 69 61 54 50 46 41 36 32 29 25 20 18 19 18 19 28 38 48 62 76 79 78 81 79 69 67 73 77 81 81 78 76 74 71
73 87 87 85 87 83 75 67 65 70 76 78 79 79 76 73 74 76 76 72 67 65 62 59 57 56 55 56 60 64 65 63 64 66 69 74 75 63 55 64 77 82 82 80 76 74 75 75 72 70 70 68 61 53 51 49 44 38 34 29 24 21 19 18 20 22 24 40 65 78 85 93 92 86 88 88 75 70 76 81 84 84 81 77 75 70
56 81 85 80 83 85 79 75 71 71 76 80 81 85 85 80 76 77 80 79 77 74 69 65 63 62 62 61 63 68 69 67 70 76 79 82 81 72 70 80 88 85 81 80 78 75 74 73 70 67 63 58 52 47 45 41 36 31 28 24 20 19 21 22 23 25 28 44 71 89 96 101 96 85 83 79 67 69 83 89 88 86 79 70 65 63
54 69 74 71 76 84 86 88 85 80 82 84 81 83 88 89 88 86 84 83 81 78 73 68 64 63 62 63 66 69 69 67 70 73 75 78 82 82 82 85 86 83 81 76 69 65 65 65 64 61 56 51 48 44 37 32 30 26 23 23 23 22 23 24 23 26 32 44 63 82 93 97 93 85 80 71 63 75 92 92 88 84 75 64 61 59
48 53 60 60 62 71 80 86 88 87 86 84 82 83 87 90 92 90 86 82 77 72 66 63 63 67 70 74 80 84 81 76 72 69 70 75 82 84 83 82 80 77 70 62 57 56 56 57 57 55 52 48 42 37 32 28 26 25 25 28 28 26 27 27 24 30 44 57 65 74 83 90 93 91 85 74 70 85 98 95 87 79 67 58 54 49
49 47 53 53 51 60 73 81 84 84 82 79 83 88 86 83 82 80 78 75 72 71 70 68 68 74 82 87 90 89 85 79 74 73 77 83 85 81 75 71 67 63 59 56 55 54 52 51 51 47 44 42 37 33 32 29 27 29 31 32 31 29 29 29 28 37 54 68 74 81 89 90 85 81 81 80 82 93 99 91 76 62 53 50 50 53
61 48 47 54 58 63 74 80 79 79 78 76 80 85 84 81 81 80 77 76 77 81 84 80 69 64 69 74 75 72 71 68 66 67 70 74 76 72 66 62 61 60 58 56 55 53 50 48 47 44 41 40 37 34 32 31 31 33 31 30 32 32 31 34 42 53 64 71 76 83 88 82 74 75 84 92 97 99 92 79 64 52 47 52 63 76
Wind_Speed
29 31 30 26 23 25 24 19 18 20 17 17 15 12 7 5 6 6 8 7 7 6 6 5 8 7 10 9 8 7 6 7 8 7 4 3 2 2 3 4 3 2 2 3 2 1 2 3 4 5 6 6 6 6 6 7 7 7 7 6 6 5 4 4 3 2 1 1 1 1 2 2 2 2 2 2 2 2 3 4 5 5 6 6 7 8
30 30 27 25 25 26 23 20 21 22 21 21 18 15 10 5 7 6 6 6 5 3 3 3 6 4 7 10 9 10 9 8 8 8 7 5 4 2 3 4 4 3 2 2 3 3 2 2 3 4 5 6 6 6 6 7 7 7 7 7 6 6 5 4 4 3 2 1 1 1 2 3 3 3 3 2 2 3 4 5 5 6 6 7 7 8
29 27 25 28 30 29 25 22 23 24 24 24 20 17 14 8 6 5 4 3 2 1 3 2 2 3 3 8 9 10 11 10 8 8 7 7 6 6 5 5 5 4 3 3 2 3 3 3 4 4 4 6 6 6 6 7 7 7 7 7 7 6 5 5 5 5 4 3 3 3 3 4 5 5 5 5 5 5 6 7 8 8 8 9 10 10
25 23 27 33 35 33 28 24 24 26 28 27 22 19 16 11 8 4 1 5 5 5 5 4 2 2 2 6 8 9 11 11 9 8 7 7 8 9 8 8 7 6 4 4 4 4 3 3 4 5 5 6 6 6 6 7 7 7 7 7 7 7 6 7 6 6 5 5 5 5 5 6 6 7 8 8 8 8 8 9 10 11 11 11 12 13
23 23 32 38 38 35 31 26 26 29 31 29 24 21 17 15 12 5 7 12 13 12 9 7 7 4 5 7 7 9 11 11 11 9 9 9 9 10 10 11 9 7 5 5 6 5 5 4 4 6 6 7 7 7 7 7 8 8 8 8 8 8 8 8 8 8 8 7 7 7 7 7 8 9 9 10 10 10 10 11 12 13 13 14 14 15
24 28 36 40 39 37 33 29 29 31 32 30 26 22 19 17 14 10 14 17 20 18 11 10 12 10 9 9 7 8 11 13 13 8 7 8 9 10 12 13 12 9 7 6 6 6 7 6 6 7 8 8 8 8 8 9 9 9 9 10 10 10 10 10 10 9 9 9 9 9 9 9 9 10 11 11 12 13 13 13 14 14 14 14 15 16
27 31 38 40 39 38 34 32 32 33 33 31 26 23 21 19 17 16 18 22 24 20 15 17 18 18 15 10 8 10 11 14 12 4 5 5 6 9 11 12 13 12 10 8 7 7 8 8 8 8 9 9 10 10 10 11 11 11 12 12 12 12 12 12 12 11 11 11 11 12 11 11 12 12 13 14 15 15 15 15 15 15 15 16 16 17
30 33 39 40 40 39 36 34 35 35 33 31 26 23 22 20 17 15 17 22 22 19 22 23 20 20 18 11 11 13 13 12 6 2 4 3 3 6 8 10 10 11 11 10 9 9 9 9 10 11 11 11 11 12 13 13 13 13 14 14 14 14 14 14 14 14 14 14 14 14 14 14 14 15 16 17 18 18 18 18 17 17 17 17 18 18
31 34 37 40 41 40 36 33 36 37 34 29 25 25 24 19 15 14 17 19 19 22 28 27 22 22 19 13 14 17 14 9 1 3 1 1 3 6 7 8 9 9 10 10 11 11 11 11 12 12 13 13 13 14 15 15 15 16 16 16 16 16 17 16 16 16 16 16 16 17 17 17 17 18 18 20 21 21 21 21 21 21 20 20 20 20
35 35 37 41 43 41 36 33 37 39 34 27 28 30 27 21 18 18 20 22 24 29 32 30 26 25 21 16 19 19 12 5 3 2 3 5 6 8 8 8 8 9 9 10 11 12 13 14 14 14 13 13 15 16 17 16 17 18 18 18 18 19 19 19 19 19 19 19 19 20 20 19 20 21 21 22 23 23 24 24 24 24 24 23 23 23
38 39 40 43 45 41 37 36 38 39 32 28 32 33 29 25 22 21 23 24 29 34 33 29 26 25 24 22 22 19 10 7 6 3 6 8 9 10 10 7 6 6 7 9 12 13 14 15 15 14 13 14 16 17 18 18 19 20 20 20 20 21 22 22 22 22 22 23 22 22 22 22 23 24 25 25 24 25 25 26 26 26 26 25 25 25
43 44 44 45 46 42 40 40 40 38 33 32 36 34 30 29 27 27 27 28 33 35 30 27 25 27 30 28 24 20 14 12 13 8 9 11 9 11 12 6 4 6 9 11 11 11 12 14 14 14 14 15 16 17 19 20 21 21 21 22 22 23 24 24 25 25 25 26 25 25 25 25 26 26 26 25 25 25 26 26 27 27 26 25 26 26
46 46 44 45 46 44 43 43 42 40 37 36 38 37 35 34 32 32 32 33 37 34 27 25 25 30 34 28 24 23 18 14 14 12 11 11 8 10 12 7 5 9 11 12 10 7 10 12 13 14 16 17 17 18 20 21 22 21 21 22 22 23 24 24 25 25 26 27 27 27 27 26 26 26 25 24 24 25 25 26 26 27 26 26 26 27
47 47 46 47 48 46 45 45 44 43 40 38 40 41 40 38 36 35 35 35 36 33 28 26 28 35 37 28 24 25 20 15 15 14 10 8 8 10 14 9 8 11 12 12 11 9 10 12 14 16 17 18 19 20 22 23 22 21 20 21 21 21 22 22 23 23 24 25 26 26 25 24 24 24 24 23 23 24 25 26 26 27 27 26 26 27
48 49 48 48 49 48 46 45 43 42 40 39 41 43 42 41 38 36 36 36 35 31 29 30 34 39 35 25 23 24 22 19 19 17 12 11 10 12 15 11 9 11 11 11 12 11 12 13 15 18 20 21 21 22 23 23 23 21 20 21 21 20 20 21 21 21 22 22 23 23 22 21 22 22 23 23 24 25 25 26 26 27 27 26 26 26
50 49 47 47 48 47 46 44 41 42 43 41 43 45 45 43 41 38 35 33 32 32 32 33 36 37 30 25 25 24 20 20 22 21 17 17 16 17 16 11 9 9 9 10 10 10 12 12 13 15 17 21 22 22 22 22 22 21 21 21 21 20 19 19 20 21 21 21 21 22 21 20 20 21 22 24 25 26 26 26 26 26 27 26 25 24
50 48 45 45 47 46 46 44 42 45 46 44 45 47 46 44 42 40 36 32 31 32 35 33 31 30 29 29 29 24 23 26 26 21 19 19 20 21 17 11 10 10 9 10 10 10 13 14 16 17 15 18 21 21 20 20 21 21 21 21 20 20 19 19 20 21 21 20 20 21 21 20 21 21 22 24 26 27 26 26 26 26 26 25 24 24
48 46 44 45 46 44 43 43 45 46 47 46 46 47 47 47 45 42 37 35 36 36 37 36 31 29 30 29 25 21 23 28 26 20 18 20 21 21 16 12 12 12 11 12 12 13 15 16 18 19 17 16 17 18 18 18 19 19 19 20 20 20 19 19 19 20 21 21 21 21 22 22 23 23 23 24 26 26 26 25 25 26 26 25 24 24
47 46 45 45 45 43 42 43 46 48 49 48 46 45 47 49 47 44 40 39 40 41 41 40 38 36 36 33 28 25 27 28 26 20 18 18 19 18 15 13 14 13 14 15 15 15 17 17 17 17 18 17 15 17 17 18 19 19 19 21 21 20 20 20 20 20 21 22 23 24 25 26 26 25 25 25 26 26 25 25 25 26 26 25 25 25
45 45 45 44 44 43 44 46 47 49 49 49 47 45 45 46 44 43 43 42 43 44 44 46 46 44 41 38 34 33 34 31 25 20 18 18 18 15 13 14 16 16 16 16 16 17 18 17 15 15 16 15 15 15 17 18 19 19 21 22 21 21 21 21 22 22 24 25 25 26 28 28 27 26 26 26 26 26 26 25 25 26 26 26 26 26
43 45 44 43 44 45 47 48 46 46 47 47 48 47 44 44 44 42 43 46 47 46 47 48 48 42 36 34 30 30 31 28 22 19 18 18 17 14 14 17 19 18 17 16 17 19 19 17 15 15 15 15 15 15 15 17 18 19 21 21 22 22 22 23 25 26 27 27 29 30 30 29 29 27 27 27 27 27 28 27 27 26 26 27 27 28
44 46 44 42 45 47 47 48 45 44 45 45 47 48 44 43 44 44 45 49 49 48 47 44 41 36 31 30 27 25 24 21 19 18 18 19 19 17 17 19 20 18 16 16 18 18 18 18 17 16 17 17 16 15 16 16 17 19 20 21 22 23 24 26 27 28 28 30 32 33 31 30 29 28 28 28 28 28 30 30 29 27 27 27 27 28
41 44 43 42 45 45 45 47 46 43 43 45 45 46 45 43 43 45 48 50 48 47 44 41 40 38 33 29 28 25 21 19 18 20 20 22 23 22 21 22 21 18 16 17 17 16 16 17 16 17 18 17 15 14 15 16 17 19 20 22 23 24 26 28 29 29 30 32 34 35 34 33 31 30 29 29 29 29 30 32 31 29 27 27 26 27
33 39 43 42 42 44 44 46 47 43 41 43 43 41 42 42 42 43 45 46 45 43 40 39 40 39 33 29 28 25 22 20 20 22 23 22 23 24 24 23 20 18 18 17 16 16 17 16 16 16 16 14 12 12 13 15 16 18 20 22 24 26 28 30 31 31 32 34 34 35 36 35 34 33 31 29 29 30 31 33 33 30 28 28 28 29
29 36 41 42 43 46 48 49 48 45 42 42 41 38 37 37 39 41 42 41 43 43 40 39 39 35 29 25 24 23 21 20 21 22 22 21 21 22 23 21 19 19 19 18 18 19 19 17 16 16 14 13 13 14 15 15 16 17 19 22 25 27 29 32 33 33 34 36 35 36 37 35 35 36 34 32 31 31 31 33 33 31 30 29 30 30
26 31 37 42 46 49 51 51 49 45 42 41 40 37 34 33 37 41 42 41 41 42 40 38 36 33 27 23 23 23 21 21 22 22 21 18 17 18 18 18 19 20 20 19 20 21 19 16 14 13 13 13 14 16 16 17 17 19 20 22 25 28 30 32 34 35 36 36 35 37 40 38 37 37 35 35 35 32 31 33 34 33 31 31 31 30
27 27 31 38 45 48 47 46 44 42 42 41 39 37 35 33 36 42 44 42 38 36 37 36 34 32 29 25 23 23 23 24 24 23 22 19 17 17 17 19 20 21 21 20 22 22 18 15 14 14 16 18 19 20 20 20 21 22 23 25 26 28 30 32 35 36 37 37 35 37 41 42 40 37 35 36 35 33 33 34 34 33 32 32 30 27
32 30 28 30 39 45 43 40 40 42 42 40 37 37 36 35 38 43 45 41 36 35 36 35 34 33 32 28 25 25 26 26 25 25 23 20 19 19 20 21 21 22 22 22 23 22 19 18 18 19 20 23 25 25 25 25 26 27 28 29 30 31 32 34 36 37 38 40 40 40 40 40 39 38 36 35 33 33 34 35 35 35 34 32 29 27
37 34 29 26 32 41 43 42 42 42 41 38 37 36 36 37 40 44 43 39 36 36 34 33 35 35 33 31 29 29 28 27 26 25 23 21 22 22 22 22 23 23 24 24 25 25 23 21 21 21 22 24 26 26 26 27 28 29 30 31 33 34 35 37 38 38 40 42 41 39 40 40 38 38 36 34 33 34 35 36 36 37 35 32 29 29
40 37 32 28 28 36 45 46 43 41 39 38 37 36 35 36 38 40 41 38 37 37 36 35 37 36 35 34 31 29 28 27 26 26 25 24 24 23 23 23 24 25 26 26 27 27 26 24 24 23 22 23 25 25 25 26 26 27 29 31 34 35 37 38 39 41 43 43 41 40 42 44 41 37 34 35 36 36 37 38 38 37 36 31 29 32
41 37 34 32 30 33 43 47 43 39 38 38 37 35 34 34 35 37 40 40 39 39 38 40 41 40 38 36 34 32 31 29 30 30 29 28 26 25 25 25 26 27 28 28 29 28 28 28 28 28 27 28 28 27 27 27 26 27 30 33 35 38 39 40 40 42 43 45 46 44 43 42 39 34 31 34 36 38 39 39 38 36 34 31 31 36
41 38 35 35 34 34 42 48 44 38 37 38 38 35 33 34 35 37 40 41 41 40 38 40 43 42 40 39 38 37 35 34 34 35 34 31 28 26 27 28 29 29 29 29 30 29 30 32 33 33 33 32 31 30 30 29 29 31 34 36 38 40 41 41 41 42 44 46 47 44 40 37 34 32 31 33 36 38 38 38 37 32 28 29 32 36
41 41 37 35 35 35 41 46 42 36 35 37 38 37 36 36 37 38 40 42 42 40 37 37 40 41 41 42 41 38 37 35 36 36 33 29 25 26 28 29 30 31 31 31 31 31 33 35 35 35 34 33 33 34 34 33 34 35 37 39 40 41 43 43 42 43 44 46 44 40 37 35 34 36 37 37 38 37 35 35 33 27 25 29 32 34
42 40 37 36 35 35 40 44 43 42 41 38 35 36 38 40 41 40 41 42 41 40 38 36 37 40 42 42 40 39 37 36 36 35 31 27 26 28 30 31 31 32 34 34 33 34 36 38 37 36 35 34 35 37 37 36 36 37 39 41 42 44 45 45 44 43 43 43 40 37 38 38 38 40 41 41 40 36 31 30 27 25 28 32 32 34
43 41 39 37 34 34 38 41 44 47 47 41 37 37 39 43 46 46 45 44 42 41 40 37 35 38 41 41 40 40 40 38 38 38 35 32 31 33 33 34 33 34 35 35 35 35 38 39 38 37 37 37 38 38 36 35 37 39 41 43 45 46 46 45 44 43 42 42 42 42 42 41 40 39 37 35 33 29 26 26 27 30 33 33 33 35
43 43 41 38 35 36 37 38 41 45 46 44 44 44 42 43 48 50 48 47 46 44 42 39 37 37 40 42 42 43 41 38 37 40 40 38 37 37 37 37 36 36 36 35 35 37 39 40 41 41 41 40 40 39 37 38 41 43 45 46 46 46 45 44 43 44 45 46 47 45 42 39 39 37 32 28 25 23 25 29 31 32 32 32 34 37
44 45 43 40 38 38 38 36 37 42 46 46 47 48 47 46 49 51 49 47 48 46 43 40 39 40 41 42 43 42 38 34 34 37 40 41 41 41 40 40 40 39 37 35 37 39 41 42 43 43 43 42 42 42 43 46 48 47 46 46 45 44 44 44 44 45 47 49 50 46 43 41 39 34 29 26 25 26 29 32 32 32 32 32 35 36
46 45 43 41 39 41 40 37 35 39 45 49 50 51 51 49 49 51 51 50 48 46 45 43 41 41 42 43 43 41 39 37 36 35 36 38 39 40 40 40 40 39 38 39 40 42 42 42 42 43 43 43 44 45 48 51 49 46 44 43 43 44 45 45 45 45 46 50 52 48 44 42 40 38 37 36 32 30 31 33 34 32 31 32 34 35
47 46 44 41 39 41 43 42 40 39 40 43 46 49 51 51 48 45 46 49 49 46 47 46 44 43 43 42 42 41 40 39 39 38 38 38 37 38 38 37 38 40 42 43 43 43 43 43 43 44 43 44 45 48 51 52 47 44 44 44 45 47 48 47 47 48 50 53 52 45 40 41 42 41 40 38 34 33 35 36 34 32 31 32 34 35
49 48 45 41 38 39 45 47 47 45 42 40 40 40 43 48 48 43 43 46 46 45 46 47 46 45 42 39 39 40 39 37 37 37 38 37 36 35 36 37 40 42 44 45 44 44 45 45 46 46 46 48 49 51 53 51 47 45 47 47 48 49 50 50 49 50 50 47 40 34 32 37 41 40 39 37 36 37 37 36 33 32 33 33 32 33
52 51 45 40 38 39 45 48 47 45 45 45 44 41 38 39 40 41 45 47 45 43 43 43 42 42 39 37 38 39 40 39 39 39 39 40 40 40 39 40 43 44 45 45 45 45 46 48 48 47 48 50 51 50 51 49 47 47 49 49 49 50 51 50 49 49 45 36 32 33 31 34 38 38 36 35 36 37 37 35 34 34 33 32 31 34
50 51 45 42 41 41 45 47 46 44 44 44 46 48 46 42 38 39 42 45 45 45 43 41 40 40 40 40 40 39 39 38 38 38 39 41 43 45 45 45 45 47 48 48 48 49 50 51 51 50 50 51 49 47 46 45 46 48 48 48 48 49 50 49 49 47 40 33 33 39 38 35 32 28 26 27 31 34 37 38 36 34 33 33 34 37
48 46 42 42 45 46 48 50 49 46 45 44 43 45 46 47 45 43 42 42 44 47 47 45 43 43 45 46 46 44 42 40 38 38 39 41 44 46 48 48 49 50 52 52 53 54 54 54 54 54 53 52 49 45 43 43 46 48 48 48 47 46 47 47 47 46 41 35 35 37 37 32 23 18 19 23 27 31 36 38 35 32 33 35 37 40
50 46 41 43 47 49 50 53 52 49 47 47 47 45 45 47 49 49 47 46 46 47 49 49 48 48 48 50 51 51 49 46 44 43 43 43 45 48 50 52 53 56 58 58 58 57 57 57 56 54 52 49 45 42 42 44 47 48 47 47 45 44 45 45 45 45 42 40 39 40 41 35 23 16 19 26 28 29 32 33 32 32 35 37 39 41
52 51 44 44 49 50 51 52 53 50 47 46 47 49 48 47 49 51 52 51 50 50 50 51 52 52 51 52 53 55 55 54 52 51 49 46 46 49 53 55 58 58 57 55 56 57 58 58 54 50 47 44 42 42 43 45 46 46 46 45 44 43 43 43 44 44 42 42 42 42 44 39 28 20 25 30 30 29 29 30 31 33 35 38 41 43
52 53 49 45 48 51 53 54 55 53 49 45 45 47 47 46 46 48 50 51 52 53 53 53 53 54 54 53 51 50 51 54 55 55 54 51 49 51 53 54 54 52 50 50 51 52 50 47 44 42 42 41 42 42 42 43 43 44 44 44 42 42 41 41 43 42 41 41 40 41 44 43 34 26 30 35 36 34 30 29 31 33 35 39 42 44
52 52 50 49 48 49 52 54 56 55 53 49 46 45 45 46 46 47 47 48 50 52 54 55 56 58 59 59 57 54 52 54 56 56 56 56 56 58 59 55 50 47 46 45 43 40 37 36 35 36 37 39 40 40 40 41 41 42 42 42 42 42 41 40 41 41 40 39 36 37 42 42 37 32 34 40 43 38 29 28 31 34 37 41 43 44
53 51 49 49 50 50 50 53 54 53 52 52 51 48 46 45 45 45 46 47 47 46 46 46 47 51 54 57 61 62 61 61 61 60 60 60 58 54 51 46 41 38 37 36 35 33 33 34 35 37 38 39 40 40 40 40 40 40 41 41 41 41 40 40 42 43 40 37 32 28 27 30 33 34 38 42 43 35 28 29 34 37 39 42 44 45
54 52 50 48 49 51 51 50 50 50 49 51 52 51 46 42 39 38 38 39 39 39 39 39 40 43 47 52 56 58 58 58 59 60 61 59 52 43 36 32 32 32 33 33 34 34 34 36 37 38 39 39 39 39 40 40 40 40 40 40 40 41 40 41 43 43 39 35 31 25 22 25 31 35 39 42 40 32 30 33 37 39 43 46 47 48
52 49 48 47 46 47 47 45 45 44 43 44 44 42 39 36 35 34 34 35 36 38 39 40 40 40 42 45 45 44 44 45 47 49 49 46 41 36 33 31 31 33 35 35 35 35 36 37 38 38 38 38 38 39 40 40 40 39 39 39 39 40 41 42 43 42 38 35 33 30 29 32 38 42 44 44 40 34 34 38 43 45 47 48 48 48
45 44 44 44 44 45 45 42 40 38 36 36 36 35 34 33 32 33 34 35 36 38 39 40 40 40 39 37 35 34 33 33 33 34 34 34 34 35 34 33 33 34 35 35 34 34 36 36 37 37 38 38 39 40 41 41 40 39 39 40 40 41 42 43 41 39 37 36 37 37 39 41 43 45 45 42 39 38 41 45 47 47 47 46 46 45
Wind_Direction
215 214 216 217 213 212 218 224 226 221 198 172 176 189 178 122 124 162 174 164 145 114 62 90 128 84 50 41 27 10 345 334 330 332 339 338 357 23 353 343 337 349 11 11 5 304 240 226 213 203 199 190 187 189 186 184 182 183 187 192 199 207 208 208 208 206 203 229 313 327 331 339 348 355 5 10 351 317 303 303 309 312 312 310 308 306
215 216 218 216 210 212 219 223 222 217 195 173 171 184 188 137 111 137 154 149 139 116 42 79 147 128 57 49 33 17 355 327 309 310 317 310 310 330 323 317 311 314 327 342 352 338 306 274 251 232 219 208 202 198 193 191 188 188 192 195 199 203 201 200 203 201 194 200 249 314 331 336 340 342 345 347 339 321 312 314 316 317 317 313 309 305
218 216 214 210 208 213 219 220 221 217 197 176 170 183 186 159 143 149 140 138 128 33 347 358 174 181 56 41 27 11 1 344 313 299 304 298 297 304 299 295 288 281 289 298 310 319 322 311 285 259 235 222 215 205 197 196 194 194 196 197 199 203 203 204 208 211 215 230 253 284 303 315 321 320 322 325 324 319 316 318 319 319 319 315 313 313
222 215 207 206 208 214 220 218 219 216 200 185 177 179 174 168 167 143 18 302 303 297 285 299 294 230 356 20 21 2 353 347 328 304 299 295 296 299 292 290 282 264 272 287 283 283 295 311 299 277 257 240 226 213 205 204 205 204 204 205 208 214 215 217 221 227 238 250 262 278 291 301 307 311 315 317 317 316 316 317 316 315 316 317 319 321
224 211 203 206 210 215 219 216 216 214 204 195 186 178 175 174 165 166 270 279 282 275 264 278 287 285 324 337 354 351 340 335 327 307 293 291 292 293 289 290 286 267 261 273 276 277 281 291 297 286 273 259 245 230 221 219 220 217 216 218 222 225 227 229 236 242 252 262 272 281 288 295 301 305 308 310 311 313 314 313 313 314 317 321 322 322
219 209 206 210 213 215 218 214 213 214 208 205 196 184 183 176 167 199 248 264 268 265 262 274 281 286 298 307 324 331 320 321 326 309 281 283 289 291 287 285 282 271 260 261 265 265 269 274 279 280 277 272 263 251 242 238 236 231 229 229 231 233 236 240 247 254 262 272 280 285 289 294 298 301 304 306 307 307 306 305 306 308 310 311 312 312
214 210 209 212 214 215 217 211 209 213 211 210 202 191 190 186 181 201 232 252 258 261 269 273 276 278 279 287 305 304 304 316 326 301 236 265 291 294 289 282 277 270 264 261 259 255 259 263 263 265 268 269 267 262 258 252 246 241 238 238 239 241 243 247 254 261 269 275 280 284 288 292 296 300 302 303 302 299 296 295 295 295 296 298 300 303
212 211 210 212 215 216 216 209 206 212 214 211 204 199 200 198 194 204 227 247 257 265 271 269 267 267 267 274 290 289 294 311 330 165 193 217 279 297 296 287 274 266 265 265 265 261 259 259 259 259 258 260 262 261 260 258 255 250 248 248 248 249 251 254 259 264 269 274 277 281 286 290 294 298 299 297 295 293 292 291 290 289 291 293 296 299
213 214 212 211 216 219 218 210 205 211 216 212 210 214 211 200 194 206 228 245 257 262 262 263 261 262 263 265 277 282 286 296 292 148 204 264 292 307 307 299 284 271 271 272 271 269 263 260 262 263 261 258 257 257 257 260 261 259 258 257 257 258 259 261 263 266 269 272 275 280 285 290 293 293 293 292 291 292 292 291 290 290 290 291 292 294
214 216 213 211 217 220 218 211 207 213 217 212 216 221 213 200 196 207 225 238 249 254 256 260 260 260 261 260 268 274 271 254 204 185 332 309 300 307 306 311 304 284 277 276 272 270 267 265 267 270 268 263 260 259 259 260 262 263 264 265 265 265 266 266 267 268 271 274 277 281 285 289 291 291 290 289 290 291 291 290 289 289 289 290 292 295
213 217 214 212 216 218 215 212 209 214 216 211 216 218 209 205 205 212 225 234 244 248 249 254 255 258 261 256 259 266 253 217 221 268 336 317 302 302 301 315 328 310 308 298 278 266 266 271 271 269 267 264 262 262 263 262 262 264 266 268 270 271 272 272 272 273 275 278 281 284 286 289 290 290 289 288 288 287 287 286 286 286 287 289 292 294
211 214 213 211 214 214 213 211 209 214 214 210 214 212 206 210 211 216 224 229 236 240 242 248 250 252 255 253 257 268 263 233 231 262 317 319 305 293 292 304 335 331 337 327 301 270 264 271 267 261 261 262 262 264 266 266 266 266 268 270 273 275 276 276 277 278 280 282 285 286 287 289 290 290 289 287 286 285 284 284 284 284 284 287 290 293
210 212 212 211 212 211 211 210 208 211 212 210 211 207 206 213 214 217 224 228 235 237 238 246 251 252 254 256 259 267 266 247 249 275 309 317 304 282 282 292 323 321 323 325 321 290 264 263 258 255 260 264 265 266 267 268 269 270 271 272 274 277 281 283 283 283 284 285 286 287 286 287 288 289 288 285 284 284 284 283 283 283 284 287 291 294
211 212 211 210 210 210 211 210 207 208 210 209 208 205 207 213 215 220 226 232 239 241 241 246 251 251 252 255 258 264 272 274 284 300 310 305 296 272 271 286 321 319 314 312 315 306 278 262 257 258 262 264 266 267 268 269 269 269 270 272 276 281 286 288 287 286 286 286 286 285 284 284 287 288 287 286 285 285 284 284 284 285 286 290 293 295
215 213 211 210 211 210 211 210 207 208 210 209 207 206 211 214 215 222 229 235 241 245 247 247 247 248 253 260 266 272 278 280 287 298 290 277 282 272 270 289 317 310 306 303 306 309 298 284 275 270 266 265 265 265 266 267 267 267 269 272 277 283 286 287 286 285 284 284 285 283 280 281 286 287 287 286 286 285 285 285 285 286 288 291 293 296
217 216 214 213 213 211 211 211 206 207 211 210 207 210 216 217 216 221 231 238 243 248 250 250 250 254 260 265 268 271 273 275 284 289 275 266 274 275 275 292 307 298 296 296 300 311 311 307 302 292 276 266 264 264 264 263 264 266 268 273 278 283 285 285 285 283 282 284 284 280 278 280 285 286 286 286 286 286 286 286 286 287 289 291 294 296
218 217 215 215 215 212 212 210 204 206 209 207 207 213 217 218 218 221 229 236 241 246 249 250 254 260 263 262 264 267 269 272 280 279 264 258 266 272 274 283 288 289 292 293 298 307 311 309 307 305 294 275 265 263 262 262 265 269 272 276 279 282 285 285 285 285 286 286 284 280 280 283 285 285 285 285 284 284 285 286 287 288 289 292 294 293
221 218 215 217 217 213 213 211 205 205 207 206 210 216 216 217 220 221 226 235 238 239 242 245 248 254 258 260 262 264 267 270 273 269 257 253 257 261 266 273 276 280 288 293 297 304 311 310 303 300 299 289 273 266 264 265 269 274 277 279 280 283 285 286 287 288 289 287 284 283 285 287 286 285 285 284 283 283 285 286 287 288 290 292 291 291
222 219 215 216 218 214 211 212 208 206 207 210 217 220 217 218 221 219 221 230 234 234 236 239 241 244 248 252 254 254 257 262 264 261 255 250 251 255 262 269 270 274 284 290 296 306 312 311 302 296 297 294 284 275 270 268 271 274 276 277 279 282 284 287 289 290 288 286 284 283 283 284 285 285 285 284 283 282 283 284 286 289 291 290 287 287
222 220 215 214 216 213 210 211 211 209 209 211 216 217 215 217 220 221 223 226 229 231 233 235 237 239 243 248 252 251 252 257 259 258 253 250 252 255 260 265 268 275 285 291 300 307 310 306 300 297 298 295 291 284 278 275 273 271 272 275 278 282 286 290 291 290 288 286 282 279 278 279 281 283 285 285 284 283 281 282 285 288 289 287 284 284
219 220 216 212 213 211 210 211 212 210 210 211 212 212 213 215 219 223 228 228 227 230 232 234 238 242 245 248 249 248 250 255 257 258 256 255 255 253 252 260 268 276 284 293 303 306 306 306 304 303 302 296 291 288 284 281 276 273 274 277 281 285 289 292 291 289 288 286 282 278 275 277 280 283 285 285 284 283 282 283 284 285 286 285 282 283
216 218 215 210 211 212 211 213 212 209 210 213 213 214 213 215 219 223 228 229 228 230 234 237 244 251 250 246 246 249 254 256 259 263 265 264 262 258 258 263 270 276 283 294 302 304 305 306 306 306 305 298 291 287 284 281 278 277 278 281 284 288 291 292 290 287 285 283 281 279 276 278 283 284 286 286 285 283 284 284 284 284 285 284 282 284
218 219 215 208 210 214 212 212 213 209 208 213 216 217 216 216 220 224 228 230 231 233 236 242 251 255 251 246 248 251 252 255 262 267 268 268 266 261 261 264 269 276 286 295 299 301 305 306 305 304 302 295 288 283 281 279 278 277 278 281 284 288 291 290 287 286 287 284 283 283 280 280 282 282 282 284 284 283 283 283 283 283 284 283 283 289
217 220 218 210 209 212 212 211 212 210 209 213 216 218 219 219 222 224 227 232 236 237 239 246 253 257 256 254 249 243 243 251 260 264 266 268 267 263 261 263 270 280 288 295 299 300 302 304 303 304 300 289 279 277 278 276 274 276 279 282 286 288 290 289 288 291 292 288 286 283 279 275 276 279 279 278 279 279 279 280 280 279 279 280 285 292
215 218 218 211 207 208 208 208 209 209 208 210 211 214 220 224 226 226 226 230 234 234 236 242 249 254 256 253 244 240 247 256 259 261 262 264 263 260 260 264 274 285 290 295 302 305 306 304 300 301 298 285 277 279 280 278 278 280 283 287 291 292 291 291 295 297 295 291 286 279 274 273 273 274 275 273 274 277 276 277 277 275 276 281 286 289
221 222 219 215 208 206 207 208 209 208 207 206 207 209 217 225 226 224 223 226 231 233 234 236 241 247 249 245 241 242 248 251 252 258 264 267 265 262 265 274 282 286 288 293 302 309 315 314 305 299 295 291 288 286 283 282 282 283 286 291 294 294 295 298 303 302 297 296 292 280 273 272 271 270 270 272 276 277 274 273 275 276 278 283 286 287
224 227 226 222 215 211 212 212 211 209 208 209 209 209 213 220 221 219 220 225 233 238 238 235 237 245 248 245 243 243 246 248 253 262 269 271 268 268 273 280 283 284 286 292 301 307 313 317 312 305 302 302 300 296 290 286 286 288 290 292 293 295 301 305 305 302 297 296 293 280 270 269 269 270 272 275 279 277 272 273 276 276 279 282 285 289
222 225 226 225 221 215 212 211 209 209 209 212 213 213 212 215 216 217 222 229 235 238 238 235 237 246 249 248 246 247 251 256 260 266 270 269 267 270 274 276 279 283 287 293 299 303 305 307 307 308 307 304 301 298 294 290 290 293 293 293 295 298 303 304 302 299 295 292 288 280 274 273 272 272 274 276 281 281 278 278 279 277 277 279 282 290
223 223 221 224 223 215 209 208 207 207 209 211 215 216 214 214 215 218 224 233 237 239 240 238 241 248 251 251 252 255 258 262 265 268 272 273 272 272 273 274 278 284 290 297 301 301 301 302 304 306 304 299 294 292 291 289 289 291 294 297 298 299 301 302 300 297 293 292 289 283 279 278 273 269 267 271 283 288 284 282 280 276 276 279 281 289
225 223 217 220 223 215 210 208 205 206 209 213 215 215 213 216 219 222 228 234 238 242 245 244 245 249 249 249 253 258 259 260 264 267 270 274 275 274 274 277 281 287 292 298 300 300 300 301 304 305 302 298 296 292 290 289 288 292 299 302 302 301 301 301 300 298 296 295 293 287 281 277 270 264 264 271 284 289 283 280 279 276 277 280 284 291
224 221 217 218 222 217 210 207 205 207 212 213 213 212 212 217 221 225 230 233 237 241 245 246 246 247 246 247 250 253 254 258 262 264 267 274 276 274 275 280 283 287 291 293 295 297 298 299 301 301 300 303 304 300 295 290 290 298 304 304 302 301 300 301 301 300 297 295 293 287 280 273 265 262 270 277 282 282 279 278 277 276 278 283 288 291
222 219 217 218 220 216 208 205 206 208 211 213 211 209 212 217 220 225 229 230 233 238 242 243 243 243 244 246 248 250 253 259 262 262 266 275 277 275 276 279 280 283 286 288 289 292 294 296 298 298 298 302 305 305 301 294 293 299 303 302 300 299 300 301 301 297 294 294 292 285 279 276 268 266 274 278 278 279 278 275 274 276 282 288 289 289
224 221 217 217 219 212 204 203 204 205 211 216 213 209 212 219 222 224 228 230 232 235 238 240 240 240 241 243 244 248 253 259 262 264 268 275 277 274 274 274 275 278 281 284 287 291 293 294 296 297 299 303 306 305 302 297 294 296 299 300 300 300 300 300 299 296 296 298 295 285 281 282 276 272 277 282 285 286 280 274 274 279 286 288 288 287
226 222 218 217 217 209 203 203 205 209 218 223 219 214 217 223 225 225 229 232 233 234 235 237 239 239 237 239 242 247 251 256 261 264 267 268 268 267 268 269 273 277 280 284 288 291 291 291 294 298 301 303 303 302 300 298 294 293 295 298 299 299 299 299 298 298 299 301 298 289 285 284 281 281 284 286 287 286 279 273 274 279 284 288 289 289
224 221 219 218 214 207 204 205 209 217 224 227 225 221 222 225 225 226 230 232 232 233 233 233 236 237 236 238 241 243 247 253 257 258 259 259 259 261 264 268 273 277 281 286 288 288 288 290 294 298 298 299 302 302 301 301 299 296 296 297 298 297 296 296 296 297 298 296 293 288 287 286 284 285 286 283 280 277 276 277 279 280 284 289 292 291
221 221 221 219 213 209 208 208 213 221 225 227 228 227 224 222 221 223 227 229 228 229 230 231 234 233 233 235 238 241 246 251 254 254 254 256 258 261 265 270 275 280 282 284 284 284 286 291 295 297 297 299 304 304 302 303 303 300 297 296 295 294 293 293 295 296 297 294 289 286 285 283 283 283 281 277 273 273 282 289 288 284 285 288 289 287
219 220 221 219 214 212 212 213 219 224 225 227 230 230 227 222 218 216 218 222 225 226 228 231 232 230 230 233 236 240 245 249 252 253 253 256 259 263 267 272 277 280 281 280 280 281 285 289 292 294 295 298 302 302 302 303 303 299 295 293 293 292 291 293 295 297 295 292 289 286 282 279 278 277 275 277 281 284 288 291 289 286 285 285 284 284
215 217 217 217 214 212 213 216 221 224 225 227 230 233 233 231 226 222 217 215 218 222 224 228 230 229 229 232 235 238 241 245 250 253 255 259 263 266 270 274 276 276 276 276 276 279 282 284 286 289 291 294 297 298 301 303 300 294 292 292 291 291 292 293 295 295 294 292 289 283 278 275 272 268 269 277 285 289 288 287 286 286 285 283 285 289
210 212 213 213 212 212 214 217 221 224 225 226 229 233 236 237 236 233 225 219 218 221 224 227 229 230 230 231 233 236 239 244 250 254 258 261 266 269 271 272 271 270 270 271 273 276 278 279 282 285 287 289 292 294 298 300 295 290 290 291 291 292 292 293 294 293 293 292 286 276 271 272 271 267 269 276 283 287 287 285 284 285 285 285 288 291
204 206 208 207 206 211 216 218 222 226 227 228 229 231 234 236 238 235 230 227 229 233 235 235 233 232 233 235 237 238 242 248 254 257 259 261 264 266 267 268 267 267 268 269 272 274 275 276 280 283 285 287 289 291 295 295 289 287 289 290 290 291 291 292 292 293 295 292 279 265 268 276 275 270 271 276 282 286 285 283 282 282 282 284 288 291
201 199 199 198 198 204 213 217 220 226 230 231 232 233 234 238 240 237 233 236 240 244 247 248 245 241 241 242 242 243 246 250 253 256 258 260 262 263 265 267 269 270 271 271 272 274 275 276 280 283 284 286 288 289 290 289 284 284 287 287 287 288 289 290 291 293 298 294 272 261 273 286 284 278 276 280 285 286 283 279 277 277 279 283 288 294
201 196 192 193 196 199 206 212 215 222 228 231 232 234 237 241 244 242 239 241 245 247 250 252 249 245 244 245 244 245 248 251 253 255 258 260 261 263 264 266 268 270 271 270 270 272 274 276 279 281 282 285 286 284 284 282 280 281 283 283 284 285 286 288 289 291 297 297 282 272 277 286 287 283 286 292 293 288 281 276 274 276 280 284 288 294
202 197 190 192 197 201 205 210 213 217 224 229 230 233 237 239 241 242 242 242 243 245 247 247 245 242 242 243 243 244 246 249 252 256 257 258 260 261 262 262 263 265 267 267 269 271 272 274 277 278 281 283 282 278 276 277 278 279 280 280 282 283 283 286 289 291 295 299 295 286 281 282 279 278 294 307 306 295 284 278 277 280 282 284 287 292
209 205 199 195 198 202 206 211 215 217 222 227 230 233 236 238 238 240 243 244 244 245 245 245 245 244 244 245 245 246 246 247 249 253 256 257 258 258 260 262 264 265 266 268 269 271 272 273 275 276 279 280 278 274 274 275 277 277 278 279 280 281 284 286 290 294 298 301 299 291 283 275 261 264 301 318 319 307 291 281 280 281 281 283 286 290
222 217 211 201 198 202 207 211 215 218 220 224 228 231 233 236 237 238 240 243 245 247 246 246 246 247 248 249 250 250 251 251 252 254 254 252 254 258 262 265 266 266 267 269 272 273 273 271 271 273 275 276 275 274 274 275 275 275 277 278 279 281 285 287 290 295 300 301 296 289 281 268 252 266 307 322 323 312 293 280 279 280 281 285 288 291
234 229 225 216 205 203 207 212 215 217 219 221 225 228 231 233 236 238 240 242 244 245 246 246 247 247 249 252 254 255 255 257 258 260 259 257 259 264 267 267 266 268 271 273 274 273 270 268 268 270 270 271 273 273 273 272 273 274 276 278 280 283 285 288 292 296 301 301 294 287 279 266 253 270 302 316 321 312 291 277 278 282 286 291 293 295
239 237 236 234 224 213 210 212 215 217 220 223 226 230 234 236 238 240 243 244 245 246 247 247 248 249 250 252 255 257 259 261 262 264 264 264 267 269 268 264 265 270 273 272 271 270 268 268 269 270 268 269 270 271 271 272 273 275 277 280 282 284 286 289 293 296 300 301 296 290 283 269 257 266 288 305 313 308 288 278 285 290 294 297 298 298
238 238 239 241 239 230 221 216 215 216 219 223 226 228 231 235 237 239 241 244 246 250 252 254 255 255 254 255 257 258 259 261 263 263 264 266 269 269 265 261 262 268 270 269 269 270 270 269 269 268 267 268 269 271 273 274 274 276 278 280 282 284 287 291 293 296 300 301 296 291 282 265 256 265 282 298 307 300 284 285 293 295 296 298 299 300
237 238 238 239 242 241 236 231 228 225 223 223 224 226 231 237 240 243 246 249 253 257 260 262 263 263 261 259 258 258 258 259 260 261 262 264 266 266 265 263 263 267 270 271 272 271 270 268 267 267 267 269 271 273 274 275 275 277 278 280 282 285 288 291 293 297 301 300 291 281 272 265 269 279 290 299 301 291 282 290 296 296 297 299 299 300
235 236 237 238 241 243 241 239 239 238 237 235 233 236 243 249 250 251 253 257 259 261 261 262 263 264 262 259 258 259 259 261 263 262 261 262 263 265 268 269 268 270 272 272 271 269 268 267 267 268 269 270 272 273 274 275 276 278 279 281 283 286 288 291 293 297 299 295 286 278 274 279 286 290 292 294 291 283 283 292 296 296 296 296 295 295
232 235 238 237 238 239 238 237 238 240 244 246 245 247 251 254 255 256 257 258 258 257 256 257 257 259 261 261 261 263 265 268 271 272 270 268 268 269 270 270 269 269 269 269 268 267 266 267 268 269 270 271 272 273 275 276 278 279 281 282 284 287 290 291 293 293 291 288 285 282 282 286 289 288 287 286 282 281 287 293 295 294 294 292 292 293